• en France
  • Liste des pays
  • À 7 jours
  • Température de l'eau
  • Carte satellitaire
  • Carte météo
  • Widgets météo
  • user-avatar
    Se connecter

    Météo par heure à Makoua

    Ce jour, 14 Décembre, Jeudi

    Heure Température Précipitation Vent Pression Humidité
    00:00 +27°C° 0 mm 1 m/s 726 mmHg 66%
    01:00 +26°C° 0 mm 1 m/s 726 mmHg 70%
    02:00 +26°C° 0 mm 1 m/s 725 mmHg 72%
    03:00 +25°C° 0 mm 1 m/s 725 mmHg 74%
    04:00 +25°C° 0 mm 1 m/s 725 mmHg 76%
    05:00 +25°C° 0 mm 1 m/s 726 mmHg 76%
    06:00 +26°C° 0 mm 1 m/s 726 mmHg 76%
    07:00 +27°C° 0 mm 1 m/s 726 mmHg 75%
    08:00 +29°C° 0,1 mm 1 m/s 726 mmHg 68%
    09:00 +31°C° 0,1 mm 1 m/s 727 mmHg 61%
    10:00 +33°C° 0,1 mm 1 m/s 727 mmHg 54%
    11:00 +35°C° 0 mm 1 m/s 726 mmHg 48%
    12:00 +37°C° 0 mm 1 m/s 726 mmHg 41%
    13:00 +37°C° 0 mm 0 m/s 726 mmHg 35%
    14:00 +37°C° 0 mm 1 m/s 725 mmHg 41%
    15:00 +35°C° 0 mm 1 m/s 724 mmHg 46%
    16:00 +33°C° 0 mm 1 m/s 724 mmHg 52%
    17:00 +31°C° 0 mm 1 m/s 724 mmHg 58%
    18:00 +30°C° 0 mm 1 m/s 724 mmHg 64%
    19:00 +28°C° 0 mm 1 m/s 725 mmHg 70%
    20:00 +28°C° 0 mm 1 m/s 725 mmHg 73%
    21:00 +27°C° 0 mm 1 m/s 725 mmHg 76%
    22:00 +27°C° 0 mm 1 m/s 726 mmHg 79%
    23:00 +26°C° 0 mm 1 m/s 726 mmHg 81%

    Demain, 15 Décembre, Vendredi

    Heure Température Précipitation Vent Pression Humidité
    00:00 +26°C° 0 mm 1 m/s 725 mmHg 84%
    01:00 +25°C° 0 mm 1 m/s 725 mmHg 87%
    02:00 +25°C° 0 mm 1 m/s 725 mmHg 88%
    03:00 +24°C° 0 mm 1 m/s 725 mmHg 89%
    04:00 +24°C° 0 mm 1 m/s 725 mmHg 91%
    05:00 +25°C° 0 mm 1 m/s 725 mmHg 87%
    06:00 +23°C° 0 mm 0 m/s 726 mmHg 84%
    07:00 +24°C° 0 mm 0 m/s 726 mmHg 81%
    08:00 +28°C° 0 mm 1 m/s 726 mmHg 70%
    09:00 +31°C° 0 mm 1 m/s 726 mmHg 58%
    10:00 +34°C° 0 mm 1 m/s 727 mmHg 47%
    11:00 +36°C° 0 mm 1 m/s 726 mmHg 42%
    12:00 +36°C° 0 mm 0 m/s 726 mmHg 37%
    13:00 +38°C° 0 mm 0 m/s 725 mmHg 33%
    14:00 +36°C° 0 mm 0 m/s 724 mmHg 35%
    15:00 +35°C° 0 mm 0 m/s 724 mmHg 37%
    16:00 +34°C° 0 mm 0 m/s 723 mmHg 40%
    17:00 +34°C° 0 mm 1 m/s 723 mmHg 46%
    18:00 +32°C° 0 mm 1 m/s 723 mmHg 52%
    19:00 +30°C° 0 mm 1 m/s 724 mmHg 58%
    20:00 +29°C° 0,1 mm 1 m/s 724 mmHg 64%
    21:00 +28°C° 0,1 mm 1 m/s 725 mmHg 71%
    22:00 +27°C° 0,1 mm 1 m/s 726 mmHg 77%
    23:00 +27°C° 0 mm 1 m/s 725 mmHg 78%

    Après-demain, 16 Décembre, Samedi

    Heure Température Précipitation Vent Pression Humidité
    00:00 +27°C° 0 mm 1 m/s 725 mmHg 79%
    01:00 +26°C° 0 mm 1 m/s 725 mmHg 80%
    02:00 +26°C° 0 mm 1 m/s 725 mmHg 81%
    03:00 +26°C° 0 mm 1 m/s 724 mmHg 81%
    04:00 +25°C° 0 mm 1 m/s 724 mmHg 82%
    05:00 +26°C° 0 mm 2 m/s 724 mmHg 81%
    06:00 +26°C° 0 mm 2 m/s 725 mmHg 79%
    07:00 +26°C° 0 mm 2 m/s 725 mmHg 78%
    08:00 +29°C° 0 mm 2 m/s 726 mmHg 69%
    09:00 +31°C° 0 mm 2 m/s 726 mmHg 61%
    10:00 +34°C° 0 mm 2 m/s 727 mmHg 52%
    11:00 +36°C° 0 mm 2 m/s 726 mmHg 48%
    12:00 +36°C° 0 mm 1 m/s 725 mmHg 43%
    13:00 +39°C° 0 mm 1 m/s 724 mmHg 38%
    14:00 +36°C° 0,1 mm 1 m/s 724 mmHg 43%
    15:00 +35°C° 0,1 mm 1 m/s 723 mmHg 48%
    16:00 +33°C° 0,1 mm 1 m/s 723 mmHg 52%
    17:00 +32°C° 0 mm 1 m/s 723 mmHg 58%
    18:00 +30°C° 0 mm 1 m/s 724 mmHg 64%
    19:00 +29°C° 0 mm 1 m/s 724 mmHg 70%
    20:00 +28°C° 0,5 mm 1 m/s 725 mmHg 73%
    21:00 +27°C° 0,5 mm 1 m/s 725 mmHg 76%
    22:00 +27°C° 0,5 mm 1 m/s 725 mmHg 79%
    23:00 +26°C° 0,1 mm 1 m/s 725 mmHg 81%

    17 Décembre, Dimanche

    Heure Température Précipitation Vent Pression Humidité
    00:00 +26°C° 0,1 mm 1 m/s 725 mmHg 83%
    01:00 +26°C° 0,1 mm 1 m/s 725 mmHg 85%
    02:00 +25°C° 0,2 mm 1 m/s 725 mmHg 88%
    03:00 +25°C° 0,2 mm 1 m/s 725 mmHg 90%
    04:00 +25°C° 0,2 mm 1 m/s 724 mmHg 92%
    05:00 +25°C° 0 mm 1 m/s 725 mmHg 91%
    06:00 +25°C° 0 mm 1 m/s 725 mmHg 90%
    07:00 +25°C° 0 mm 1 m/s 726 mmHg 90%
    08:00 +26°C° 0,1 mm 1 m/s 726 mmHg 84%
    09:00 +28°C° 0,1 mm 1 m/s 726 mmHg 78%
    10:00 +29°C° 0,1 mm 2 m/s 727 mmHg 72%
    11:00 +30°C° 0,2 mm 2 m/s 726 mmHg 67%
    12:00 +31°C° 0,2 mm 2 m/s 725 mmHg 62%
    13:00 +32°C° 0,2 mm 2 m/s 725 mmHg 57%
    14:00 +31°C° 0,5 mm 1 m/s 724 mmHg 59%
    15:00 +31°C° 0,5 mm 1 m/s 724 mmHg 62%
    16:00 +31°C° 0,5 mm 1 m/s 724 mmHg 64%
    17:00 +29°C° 0,1 mm 1 m/s 724 mmHg 70%
    18:00 +28°C° 0,1 mm 1 m/s 725 mmHg 76%
    19:00 +24°C° 0,1 mm 0 m/s 725 mmHg 82%
    20:00 +26°C° 0,1 mm 1 m/s 726 mmHg 83%
    21:00 +26°C° 0,1 mm 1 m/s 726 mmHg 84%
    22:00 +25°C° 0,1 mm 1 m/s 727 mmHg 85%
    23:00 +25°C° 0 mm 1 m/s 726 mmHg 86%

    18 Décembre, Lundi

    Heure Température Précipitation Vent Pression Humidité
    00:00 +25°C° 0 mm 1 m/s 726 mmHg 87%
    01:00 +25°C° 0 mm 1 m/s 726 mmHg 89%
    02:00 +24°C° 0 mm 1 m/s 725 mmHg 89%
    03:00 +24°C° 0 mm 1 m/s 725 mmHg 90%
    04:00 +24°C° 0 mm 1 m/s 725 mmHg 91%
    05:00 +24°C° 0 mm 1 m/s 726 mmHg 89%
    06:00 +25°C° 0 mm 1 m/s 726 mmHg 86%
    07:00 +25°C° 0 mm 1 m/s 726 mmHg 84%
    08:00 +27°C° 0 mm 1 m/s 727 mmHg 73%
    09:00 +30°C° 0 mm 2 m/s 727 mmHg 63%
    10:00 +32°C° 0 mm 2 m/s 727 mmHg 53%
    11:00 +34°C° 0 mm 2 m/s 726 mmHg 50%
    12:00 +35°C° 0 mm 2 m/s 726 mmHg 46%
    13:00 +36°C° 0 mm 2 m/s 725 mmHg 43%
    14:00 +35°C° 0,1 mm 2 m/s 724 mmHg 45%
    15:00 +34°C° 0,1 mm 1 m/s 724 mmHg 48%
    16:00 +33°C° 0,1 mm 1 m/s 723 mmHg 50%
    17:00 +31°C° 0 mm 1 m/s 724 mmHg 56%
    18:00 +30°C° 0 mm 1 m/s 724 mmHg 63%
    19:00 +28°C° 0 mm 1 m/s 725 mmHg 69%
    20:00 +27°C° 0,1 mm 1 m/s 725 mmHg 72%
    21:00 +27°C° 0,1 mm 1 m/s 725 mmHg 76%
    22:00 +26°C° 0,1 mm 1 m/s 726 mmHg 79%
    23:00 +26°C° 0 mm 1 m/s 725 mmHg 80%

    19 Décembre, Mardi

    Heure Température Précipitation Vent Pression Humidité
    00:00 +25°C° 0 mm 1 m/s 725 mmHg 81%
    01:00 +25°C° 0 mm 1 m/s 725 mmHg 82%
    02:00 +25°C° 0 mm 1 m/s 725 mmHg 83%
    03:00 +25°C° 0 mm 1 m/s 725 mmHg 84%
    04:00 +24°C° 0 mm 1 m/s 725 mmHg 86%
    05:00 +25°C° 0 mm 1 m/s 725 mmHg 84%
    06:00 +25°C° 0 mm 1 m/s 726 mmHg 82%
    07:00 +25°C° 0 mm 1 m/s 726 mmHg 81%
    08:00 +28°C° 0 mm 1 m/s 727 mmHg 71%
    09:00 +30°C° 0 mm 1 m/s 727 mmHg 60%
    10:00 +33°C° 0 mm 1 m/s 727 mmHg 50%
    11:00 +33°C° 0,3 mm 1 m/s 726 mmHg 51%
    12:00 +33°C° 0,3 mm 1 m/s 726 mmHg 52%
    13:00 +33°C° 0,3 mm 1 m/s 725 mmHg 52%
    14:00 +33°C° 0,5 mm 1 m/s 724 mmHg 56%
    15:00 +32°C° 0,5 mm 1 m/s 724 mmHg 59%
    16:00 +31°C° 0,5 mm 2 m/s 723 mmHg 62%
    17:00 +30°C° 0,2 mm 1 m/s 724 mmHg 68%
    18:00 +28°C° 0,2 mm 1 m/s 724 mmHg 75%
    19:00 +26°C° 0,2 mm 1 m/s 725 mmHg 81%
    20:00 +26°C° 0,1 mm 1 m/s 725 mmHg 83%
    21:00 +26°C° 0,1 mm 1 m/s 725 mmHg 84%
    22:00 +25°C° 0,1 mm 1 m/s 726 mmHg 86%
    23:00 +25°C° 0 mm 1 m/s 725 mmHg 86%
    Voir plus